sat.trackr.live / text

‹ back to catalog

ZHONGXING-2C

NORAD 41021 · 2015-063A

PAYLOAD ACTIVE UNKNOWN

§ Identity

Operator
Country
PRC
Launch date
2015-11-03
Launch site
XICLF
Launch vehicle
Mass (kg)
RCS (m²)
75.46

Purposes: comms

External: N2YO · Heavens-Above · Gunter

§ Orbital elements

Epoch: 2026-09-04T01:06:26.890848Z

Period
1,436.14 min
Inclination
0.4692°
Eccentricity
0.0010080
Mean motion
1.00268459 rev/d
Perigee alt
35,745.0 km
Apogee alt
35,830.0 km
Semi-major
42,165.7 km
B*
0.0000e+0
RAAN
87.1101°
Arg perigee
112.1300°
Mean anomaly
263.9757°
Rev number
3,977

§ Raw data

ZHONGXING-2C1 41021U 15063A   26247.04614457 -.00000328  00000+0  00000+0 0  99972 41021   0.4692  87.1101 0010080 112.1300 263.9757  1.00268459 39776

JSON: /api/v1/satellites/41021 · /tle

For live sub-satellite position, see the globe view (requires WebGL).

§ Visibility from observer

Set your observer location to see the next 7 days of passes ≥ 10°. The values pass through the URL so the page stays shareable.

No JS? Fill the form by hand. The geolocation button needs JavaScript.